Home > Weather > Portland > Past weeks

Flag for USA Weather for the Past 2 Weeks in Portland, Maine, USA

Now
43 °F

Fog.


Feels Like: 38 °F
Forecast: 42 / 47 °F
Wind: 9 mph from North

Location: Portland - Portland International Jetport

Current Time: May 5, 2016 at 5:13:36 AM

Latest Report: May 5, 2016 at 3:51 AM


Visibility: 6 mi

Pressure: 29.79 "Hg

Humidity: 97%

Dew Point: 42 °F

Location of PortlandLocation

Historic Weather in Portland — Graph

°F

Portland Temperature Yesterday

Maximum temperature yesterday: 49 °F (at 8:51 AM)
Minimum temperature yesterday: 41 °F (at 5:51 AM)
Average temperature yesterday: 45 °F

High & Low Weather Summary for the Past Weeks

 TemperatureHumidityPressure
High67 °F (Apr 21, 3:51 PM)97% (May 2, 4:51 AM)30.26 "Hg (May 2, 4:51 AM)
Low29 °F (Apr 27, 3:51 AM)14% (Apr 21, 10:51 AM)29.75 "Hg (Apr 23, 1:51 AM)
Average46 °F61%30.00 "Hg
* Reported Apr 20 3:51 AM — May 5 3:51 AM, Portland, Weather by CustomWeather, © 2016

Note: Actual official high and low records may vary slightly from our data, if they occured in-between our weather recording intervals... More about our weather records

Advertising

Portland Weather History for the Previous 24 Hours

Scroll right to see more
 ConditionsComfort  
Time TempWeatherWind HumidityBarometerVisibility
3:51 AM
Thu, May 5
43 °FFog.9 mph97%29.79 "Hg6 mi
2:51 AM43 °FFog.10 mph93%29.81 "Hg5 mi
1:51 AM43 °FLight rain. Overcast.7 mph93%29.83 "Hg7 mi
12:51 AM43 °FLight rain. Low clouds.8 mph93%29.85 "Hg10 mi
11:51 PM
Wed, May 4
43 °FLight rain. Overcast.9 mph93%29.86 "Hg8 mi
11:03 PM43 °FLight rain. Mostly cloudy.13 mph89%29.87 "Hg7 mi
10:54 PM43 °FLight rain. Fog.10 mph93%29.87 "Hg6 mi
9:51 PM43 °FLight rain. Mostly cloudy.12 mph89%29.89 "Hg9 mi
8:51 PM43 °FLight rain. Fog.13 mph86%29.90 "Hg4 mi
7:51 PM43 °FLight rain. Fog.13 mph86%29.91 "Hg4 mi
6:51 PM43 °FLight rain. Overcast.10 mph86%29.88 "Hg10 mi
5:58 PM43 °FLight rain. Overcast.12 mph86%29.91 "Hg10 mi
4:51 PM43 °FLow clouds.9 mph86%29.89 "Hg10 mi
3:51 PM43 °FLow clouds.12 mph89%29.90 "Hg10 mi
2:51 PM45 °FLow clouds.12 mph82%29.90 "Hg10 mi
1:51 PM46 °FOvercast.10 mph83%29.92 "Hg10 mi
12:53 PM46 °FLight rain. Mostly cloudy.7 mph83%29.92 "Hg10 mi
11:51 AM47 °FMostly cloudy.9 mph80%29.95 "Hg10 mi
10:51 AM49 °FPartly sunny.12 mph80%29.92 "Hg10 mi
9:51 AM48 °FBroken clouds.9 mph80%29.91 "Hg10 mi
8:51 AM49 °FBroken clouds.6 mph80%29.93 "Hg10 mi
7:51 AM47 °FOvercast.3 mph86%29.92 "Hg10 mi
6:51 AM44 °FMostly cloudy.No wind93%29.90 "Hg10 mi
5:51 AM41 °FFog.No wind93%29.89 "Hg7 mi
Weather by CustomWeather, © 2016

See weather overviewHow to use our weather pages